TimeAKST,TemperatureF,Dew PointF,Humidity,Sea Level PressureIn,VisibilityMPH,Wind Direction,Wind SpeedMPH,Gust SpeedMPH,PrecipitationIn,Events,Conditions,WindDirDegrees,DateUTC
12:16 AM,-0.4,-5.8,78,30.41,10.0,West,10.4,-,N/A,,Clear,260,2012-11-29 09:16:00
12:36 AM,-0.4,-5.8,78,30.40,10.0,West,11.5,-,N/A,,Clear,260,2012-11-29 09:36:00
12:56 AM,-0.4,-5.8,78,30.40,10.0,West,10.4,-,N/A,,Clear,260,2012-11-29 09:56:00
1:16 AM,-0.4,-5.8,78,30.39,10.0,West,11.5,-,N/A,,Clear,260,2012-11-29 10:16:00
1:36 AM,-0.4,-4.0,85,30.39,10.0,West,11.5,-,N/A,,Clear,260,2012-11-29 10:36:00
1:56 AM,-0.4,-5.8,78,30.40,10.0,West,12.7,-,N/A,,Clear,260,2012-11-29 10:56:00
2:16 AM,-0.4,-5.8,78,30.39,10.0,West,10.4,-,N/A,,Clear,260,2012-11-29 11:16:00
2:36 AM,-0.4,-5.8,78,30.39,10.0,WSW,10.4,-,N/A,,Clear,250,2012-11-29 11:36:00
2:56 AM,-2.2,-5.8,85,30.39,10.0,WSW,10.4,-,N/A,,Clear,240,2012-11-29 11:56:00
3:16 AM,-0.4,-2.2,92,30.38,10.0,WSW,11.5,-,N/A,,Clear,240,2012-11-29 12:16:00
3:36 AM,-0.4,-5.8,78,30.38,10.0,WSW,9.2,-,N/A,,Clear,250,2012-11-29 12:36:00
3:56 AM,-0.4,-4.0,85,30.38,10.0,WSW,11.5,-,N/A,,Clear,250,2012-11-29 12:56:00
4:16 AM,-0.4,-5.8,78,30.37,10.0,WSW,10.4,-,N/A,,Clear,250,2012-11-29 13:16:00
4:36 AM,-0.4,-4.0,85,30.36,10.0,WSW,9.2,-,N/A,,Clear,250,2012-11-29 13:36:00
4:56 AM,-0.4,-5.8,78,30.36,10.0,WSW,10.4,-,N/A,,Clear,250,2012-11-29 13:56:00
5:16 AM,-0.4,-4.0,85,30.36,10.0,WSW,9.2,-,N/A,,Clear,250,2012-11-29 14:16:00
5:36 AM,-0.4,-4.0,85,30.36,10.0,WSW,10.4,-,N/A,,Clear,250,2012-11-29 14:36:00
5:56 AM,-0.4,-4.0,85,30.35,10.0,West,10.4,-,N/A,,Clear,260,2012-11-29 14:56:00
6:16 AM,-0.4,-2.2,92,30.36,10.0,WSW,11.5,-,N/A,,Clear,240,2012-11-29 15:16:00
6:36 AM,-0.4,-5.8,78,30.36,10.0,WSW,8.1,-,N/A,,Clear,240,2012-11-29 15:36:00
6:56 AM,-0.4,-5.8,78,30.35,10.0,WSW,10.4,-,N/A,,Clear,240,2012-11-29 15:56:00
7:16 AM,-0.4,-2.2,92,30.35,10.0,WSW,11.5,-,N/A,,Clear,240,2012-11-29 16:16:00
7:36 AM,-0.4,-4.0,85,30.35,10.0,WSW,10.4,-,N/A,,Clear,250,2012-11-29 16:36:00
7:56 AM,-0.4,-4.0,85,30.34,10.0,WSW,10.4,-,N/A,,Clear,250,2012-11-29 16:56:00
8:16 AM,-0.4,-4.0,85,30.35,10.0,WSW,10.4,-,N/A,,Clear,250,2012-11-29 17:16:00
8:36 AM,1.4,-2.2,85,30.34,10.0,WSW,11.5,-,N/A,,Clear,250,2012-11-29 17:36:00
8:56 AM,-0.4,-4.0,85,30.33,10.0,WSW,10.4,-,N/A,,Clear,250,2012-11-29 17:56:00
9:16 AM,-0.4,-5.8,78,30.33,10.0,WSW,9.2,-,N/A,,Clear,240,2012-11-29 18:16:00
9:36 AM,-0.4,-4.0,85,30.33,10.0,WSW,9.2,-,N/A,,Clear,250,2012-11-29 18:36:00
9:56 AM,-0.4,-2.2,92,30.33,10.0,SW,10.4,-,N/A,,Clear,220,2012-11-29 18:56:00
10:16 AM,1.4,-2.2,85,30.33,10.0,WSW,10.4,-,N/A,,Clear,240,2012-11-29 19:16:00
10:36 AM,1.4,-4.0,78,30.33,10.0,WSW,10.4,-,N/A,,Clear,250,2012-11-29 19:36:00
10:56 AM,1.4,-0.4,92,30.32,10.0,WSW,9.2,-,N/A,,Clear,250,2012-11-29 19:56:00
11:16 AM,1.4,-2.2,85,30.32,10.0,WSW,11.5,-,N/A,,Clear,250,2012-11-29 20:16:00
11:36 AM,1.4,-2.2,85,30.33,10.0,WSW,8.1,-,N/A,,Clear,250,2012-11-29 20:36:00
11:56 AM,1.4,-0.4,92,30.33,10.0,West,10.4,-,N/A,,Clear,270,2012-11-29 20:56:00
12:16 PM,1.4,-0.4,92,30.33,10.0,West,8.1,-,N/A,,Clear,260,2012-11-29 21:16:00
12:36 PM,1.4,-0.4,92,30.32,10.0,West,8.1,-,N/A,,Clear,260,2012-11-29 21:36:00
12:56 PM,1.4,-2.2,85,30.31,10.0,West,10.4,-,N/A,,Clear,260,2012-11-29 21:56:00
1:16 PM,3.2,-0.4,85,30.33,10.0,WSW,5.8,-,N/A,,Partly Cloudy,240,2012-11-29 22:16:00
1:36 PM,3.2,-0.4,85,30.33,9.0,West,10.4,-,N/A,,Scattered Clouds,270,2012-11-29 22:36:00
1:56 PM,3.2,1.4,92,30.34,10.0,WSW,8.1,-,N/A,,Clear,250,2012-11-29 22:56:00
2:16 PM,3.2,1.4,92,30.34,10.0,West,5.8,-,N/A,,Clear,260,2012-11-29 23:16:00
2:36 PM,3.2,1.4,92,30.33,6.0,West,8.1,-,N/A,,Partly Cloudy,270,2012-11-29 23:36:00
2:56 PM,3.2,-0.4,85,30.35,2.5,Calm,Calm,-,N/A,,Mostly Cloudy,0,2012-11-29 23:56:00
3:16 PM,3.2,-0.4,85,30.34,0.8,West,4.6,-,N/A,,Overcast,260,2012-11-30 00:16:00
3:36 PM,1.4,-2.2,85,30.34,5.0,Calm,Calm,-,N/A,,Overcast,0,2012-11-30 00:36:00
3:56 PM,-0.4,-5.8,78,30.34,10.0,Calm,Calm,-,N/A,,Overcast,0,2012-11-30 00:56:00
4:16 PM,-2.2,-5.8,85,30.36,10.0,Calm,Calm,-,N/A,,Overcast,0,2012-11-30 01:16:00
4:36 PM,-2.2,-5.8,85,30.37,10.0,Calm,Calm,-,N/A,,Overcast,0,2012-11-30 01:36:00
4:56 PM,-0.4,-5.8,78,30.37,4.0,Calm,Calm,-,N/A,,Overcast,0,2012-11-30 01:56:00
5:16 PM,-0.4,-2.2,92,30.38,0.8,Calm,Calm,-,N/A,,Overcast,0,2012-11-30 02:16:00
5:36 PM,-0.4,-4.0,85,30.38,0.8,Calm,Calm,-,N/A,,Overcast,0,2012-11-30 02:36:00
5:56 PM,-0.4,-2.2,92,30.38,0.2,NNE,3.5,-,N/A,,Overcast,20,2012-11-30 02:56:00
6:16 PM,-2.2,-5.8,85,30.39,7.0,ENE,4.6,-,N/A,,Overcast,70,2012-11-30 03:16:00
6:36 PM,-0.4,-2.2,92,30.39,10.0,Calm,Calm,-,N/A,,Overcast,0,2012-11-30 03:36:00
6:56 PM,-0.4,-7.6,72,30.39,10.0,NNE,3.5,-,N/A,,Overcast,30,2012-11-30 03:56:00
7:16 PM,-5.8,-9.4,84,30.39,10.0,NE,3.5,-,N/A,,Overcast,40,2012-11-30 04:16:00
7:36 PM,-5.8,-9.4,84,30.39,3.0,NE,4.6,-,N/A,,Overcast,50,2012-11-30 04:36:00
7:56 PM,-5.8,-9.4,84,30.39,10.0,NE,3.5,-,N/A,,Overcast,40,2012-11-30 04:56:00
8:16 PM,-7.6,-11.2,84,30.40,10.0,NNE,3.5,-,N/A,,Mostly Cloudy,30,2012-11-30 05:16:00
8:36 PM,-7.6,-11.2,84,30.40,10.0,Calm,Calm,-,N/A,,Partly Cloudy,0,2012-11-30 05:36:00
8:56 PM,-7.6,-9.4,92,30.40,10.0,Calm,Calm,-,N/A,,Clear,0,2012-11-30 05:56:00
9:16 PM,-7.6,-11.2,84,30.39,10.0,Calm,Calm,-,N/A,,Clear,0,2012-11-30 06:16:00
9:36 PM,-7.6,-13.0,77,30.39,10.0,NE,3.5,-,N/A,,Clear,50,2012-11-30 06:36:00
9:56 PM,-7.6,-9.4,92,30.40,10.0,Calm,Calm,-,N/A,,Clear,0,2012-11-30 06:56:00
10:16 PM,-7.6,-13.0,77,30.41,10.0,Calm,Calm,-,N/A,,Clear,0,2012-11-30 07:16:00
10:36 PM,-7.6,-9.4,92,30.41,10.0,Calm,Calm,-,N/A,,Clear,0,2012-11-30 07:36:00
10:56 PM,-7.6,-11.2,84,30.40,10.0,ENE,3.5,-,N/A,,Clear,60,2012-11-30 07:56:00
11:16 PM,-5.8,-7.6,92,30.40,10.0,ENE,4.6,-,N/A,,Clear,70,2012-11-30 08:16:00
11:36 PM,-7.6,-13.0,77,30.40,10.0,NE,4.6,-,N/A,,Clear,50,2012-11-30 08:36:00
11:56 PM,-7.6,-11.2,84,30.39,10.0,NE,3.5,-,N/A,,Clear,50,2012-11-30 08:56:00